Location: Little Chesterford
(52.0500°N, 0.1833°E)
Time: 15:04:51
(UTC+00:00)

SL-16 R/B - Pass Details

Date: 26 September 2023
Orbit: 840 x 849 km, 71.0° (Epoch: 07 December)

Event Time Altitude Azimuth Distance (km) Brightness Sun altitude
Exits shadow 21:15:11 12° 42° (NE) 2,340 4.5 -29.9°
Drops below altitude 10° 21:15:34 10° 41° (NE) 2,477 4.6 -29.9°
Sets 21:18:08 0° 35° (NE) 3,418 5.5 -30.2°
